2019 VK3
ephemeris date magn radius delta ra dec elong phase
Today4 Sep 202626.01.543 AU0.558 AU21h30m-00°32'158.9°13.6°
2019 VK3 - 2026-09-04
astro.vanbuitenen.nl


 
-1 year
-1 month
-1 day
Now
+1 day
+1 month
+1 year

The interactive orbit chart above shows the body's path through the solar system and its position at the given date. Green and blue lines are shown perpendicular to the ecliptic plane: Green if the path is above the ecliptic plane, blue if it is below. (Left-click and drag to rotate the view; Right-click and drag to move the view; Use scroll wheel to zoom in our out.)

The orbital elements of 2019 VK3 are:

            e (Eccentricity)                : 0.6322158
            a (Semimajor axis)              : 1.0348860
            i (Inclination)                 : 4.96737
            Ω (Longitude of ascending node) : 232.24167
            ω (Argument of perihelion)      : 302.25371
            M (Mean anomaly)                : 36.61043
            Epoch                           : 2026 Jun 09

            L (Longitude of perihelion)     : 174.59276
            B (Latitude of perihelion)      : -4.19937
            P (Orbital period in years)     : 1.05            
        

The light curve chart below shows the estimated development of the minor planet's magnitude.


The all-sky chart below shows the path of the minor planet over the same period as the light curve. The current position is marked yellow.





The following chart shows the path of the minor planet in the next few days. The field of view is optimized for (~10x50) binoculars and finderscopes.




Ephemerides:
Date       Time       RA (2000)    DEC (2000)    delta   radius  elong  phase   PA    magn
2026-09-04 00:00 UT   21 30 17.0   +00 32 51     0.558    1.543  158.9   13.6   109   26.0 
2026-09-04 07:05 UT   21 29 34.2   +00 39 39     0.561    1.544  158.6   13.8   109   26.0 
2026-09-05 00:00 UT   21 27 54.0   +00 55 43     0.566    1.547  157.7   14.3   106   26.0 
2026-09-06 00:00 UT   21 25 36.6   -01 18 06     0.574    1.552  156.5   15.0   104   26.1 
2026-09-07 00:00 UT   21 23 25.0   -01 39 57     0.582    1.556  155.2   15.8   101   26.1 
2026-09-08 00:00 UT   21 21 19.1   -02 01 18     0.591    1.560  153.9   16.5    99   26.2 
2026-09-09 00:00 UT   21 19 18.9   -02 22 06     0.600    1.564  152.6   17.2    97   26.3 
2026-09-10 00:00 UT   21 17 24.3   -02 42 23     0.609    1.568  151.3   17.9    96   26.3 
2026-09-11 00:00 UT   21 15 35.3   -03 02 06     0.618    1.573  150.0   18.7    94   26.4 
2026-09-12 00:00 UT   21 13 51.8   -03 21 17     0.627    1.576  148.7   19.4    93   26.5 
2026-09-13 00:00 UT   21 12 13.7   -03 39 55     0.636    1.580  147.4   20.0    92   26.5 
2026-09-14 00:00 UT   21 10 41.0   -03 58 00     0.646    1.584  146.2   20.7    91   26.6 
2026-09-15 00:00 UT   21 09 13.6   -04 15 33     0.656    1.588  144.9   21.4    90   26.6 
2026-09-16 00:00 UT   21 07 51.3   -04 32 33     0.666    1.592  143.6   22.0    89   26.7 
2026-09-17 00:00 UT   21 06 34.2   -04 49 00     0.676    1.595  142.4   22.6    88   26.7 
2026-09-18 00:00 UT   21 05 22.0   -05 04 56     0.687    1.599  141.1   23.2    87   26.8 
2026-09-19 00:00 UT   21 04 14.6   -05 20 21     0.697    1.602  139.9   23.8    86   26.9 
2026-09-20 00:00 UT   21 03 12.1   -05 35 14     0.708    1.606  138.7   24.4    86   26.9 


    Terminology:
            
    delta:  distance between minor planet and earth in AU
    radius: distance between minor planet and sun in AU
    magn:   magnitude (brightness) estimate    
    ra:     right ascension in hours (24h = 360deg)
    dec:    declination in degrees
    elong:  elongation in degrees (angle sun-earth-minor planet)    
    phase:  phase angle in degrees (angle sun-minor planet-earth)        
    AU:     Astronomical Unit (mean distance between earth and sun: 149597870.7 km
    

Orbital elements provided by the MPC (Minor Planet Center).
Calculations by a modified version of AAPlus, a C# implementation of the AA+ project by PJ Naughter from the algorithms presented in the book "Astronomical Algorithms" by Jean Meeus.
NGC2000 dso catalog and star labels from VizieR as provided by the Strasbourg astronomical Data Center.
Tycho2 catalog from the ESO archive.